World > North America > United States > Texas

Mosheim, Texas Regional Weather

Lat: 31.63N, Lon: 97.6W
Wx Zone: TXZ144Web Search
Mosheim Weather Warning NWS WEATHER ALERT FOR THE MOSHEIM, TX AREA - Issued: 727 PM CDT Thu Apr 15 2021 Mosheim Weather Warning  

If you are on your PC, you can easily pass this page to your phone by scanning the QR Code near the bottom with your camera.

Feedback


°F Click to change Mosheim hourly weather to Imperial units.Click to change Mosheim hourly weather to Metric units. °C
Mosheim Weather Map
UTC Time: 4/16/2021, 07:03
Your Time:

Mosheim, TX Regional Weather

Expires:202104160800;;627061
ASUS44 KFWD 160703
RWRTX 
NORTH TEXAS HOURLY WEATHER ROUNDUP
NATIONAL WEATHER SERVICE FORT WORTH TX
200 AM CDT FRI APR 16 2021

NOTE: "FAIR" INDICATES FEW OR NO CLOUDS BELOW 12,000 FEET WITH NO
SIGNIFICANT WEATHER AND/OR OBSTRUCTIONS TO VISIBILITY.


TXZ143>147-156>162-174-175-160800-
CENTRAL TEXAS
  
CITY           SKY/WX    TMP DP  RH WIND       PRES   REMARKS
WACO           CLOUDY    60  58  92 E7        29.87R FOG              
WACO-MCGREGOR  CLOUDY    60  59  96 E6        29.87R FOG              
HILLSBORO      LGT RAIN  59  59 100 CALM      29.89S                  
CORSICANA      CLOUDY    62  57  83 SE13G28   29.86F                  
MEXIA          CLOUDY    59  59  98 E7        29.87S                  
HEARNE         CLOUDY    62  60  94 CALM      29.87F                  
CAMERON        CLOUDY    60  59  96 SE6       29.85F                  
TEMPLE         CLOUDY    60  60 100 SE10      29.85F                  
KILLEEN        CLOUDY    58  57  96 E5        29.95R                  
KILLEEN-SKYLRK CLOUDY   N/A N/A N/A SE7       29.86F                  
FORT HOOD      CLOUDY    59  58  97 E6        29.86S                  
GATESVILLE     CLOUDY    59  59 100 CALM      29.90R FOG              
HAMILTON       CLOUDY    58  58 100 SE12      29.86F FOG              
$$


SKY/WX - Weather  TMP - Temperature  DP - Dew Point  RH - Relative Humidity
WIND - Wind Direction/Speed PRES - Barometric Pressure VSB - Visibility
WCI - Wind Chill Index E13G22 Wind - East Wind 13 mph/Gusts of 22 mph